Tracking 19245 objects as of 18-Aug-2018
HD Live streaming from Space Station
objects crossing your sky now

FLOCK 3P 71

Track FLOCK 3P 71 now!
10-day predictions
FLOCK 3P 71 is classified as:


NORAD ID: 42024
Int'l Code: 2017-008CE
Perigee: 491.7 km
Apogee: 504.7 km
Inclination: 97.4 °
Period: 94.4 minutes
Semi major axis: 6869 km
RCS: Unknown
Launch date: February 15, 2017
Source: United States (US)
Launch site: SRIHARIKOTA (SRI)
aabbcc
Your satellite tracking list
Your tracking list is empty




NASA's NSSDC Master Catalog

Two Line Element Set (TLE):
1 42024U 17008CE  18230.16501105  .00002332  00000-0  96520-4 0  9997
2 42024  97.4471 294.8641 0009483 132.3686 227.8356 15.24914286 82424
Source of the keplerian elements: AFSPC